THOR ABLESTAR DEB, 3124

Orbit data source: Space-Track

THOR ABLESTAR DEB, 3124 is space debris in LEO originally from a launch on Thu, 29 Jun 1961 UTC launched from the Air Force Eastern Test Range (AFETR). Debris objects in space refer to the collection of defunct objects orbiting the Earth. Examples of debris include non-operational satellites, rocket bodies, and fragments generated from explosions, collisions, or faulty payload assembly.

Loading next visibility...
Identifier
3124, 1961-015HX
Orbit
LEO
Country
Flag of USUS
Related business
Manufacturer
Unknown
Mission
Spacecraft
Bus & Motor
Unknown
Mass
Unknown
Launch date (UTC)
1961-06-29 (65 years ago)
Launch vehicle
Unknown
Launch site
Air Force Eastern Test Range (AFETR)
Object type
Payload
Rocket body
Debris
Shape & HBR
Unknown shape, 0.1 m
Radar Cross Section
Small (<0.1 m²)

Expand to show TLE details & history
Last TLE update: 2 days ago

TLE from 2 days ago
0 THOR ABLESTAR DEB
1 03124U 61015HX  26072.55939329  .00002471  00000-0  25809-2 0  9995
2 03124  66.9873 142.0755 0311142 148.1456 213.8850 13.57563203156167
Epoch: 2026-03-13T13:25Z
TLE epoch observation values (Epoch: 2026-03-13T13:25:31.580Z)
Latitude
-0.00002°
Longitude
129.50072°
Altitude
1,240.521 km
Speed
7.14 km/s
True Right ascension
09h 28m 18s
True Declination
0° 00' 00"
Sunlit
Object was in full shadow at epoch
Visualization orbit readout
Latitude
Unknown
Longitude
Unknown
Altitude
Unknown
Speed
Unknown
Apparent Right ascension
Unknown
Apparent Declination
Unknown
Sunlit
N/A
Visualization observer readout
Local Sidereal Time
11:31:55
Azimuth
Unknown
Elevation
Unknown
Doppler factor
Unknown
Orbital elements
Apogee altitude
1,273.859 km
Perigee altitude
812.056 km
Semi-major axis
7,421.094 km
Eccentricity
0.03111
Inclination
66.9873°
RAAN
142.0755°
Arg. of periapsis
148.1456°
True anomaly
211.95979°
Mean anomaly
213.885°
Eccentric anomaly
212.91625°
Mean motion
3.39501 °/min
Orbital period
106.04 mins
BSTAR
0.0025809

Documentation

Showing up to 5 results
|